TimeEDT,TemperatureF,Dew PointF,Humidity,Sea Level PressureIn,VisibilityMPH,Wind Direction,Wind SpeedMPH,Gust SpeedMPH,PrecipitationIn,Events,Conditions,WindDirDegrees,DateUTC
12:53 AM,69.1,62.1,78,29.90,10.0,Calm,Calm,-,N/A,,Overcast,0,2013-04-05 04:53:00
1:53 AM,66.9,63.0,87,29.90,10.0,ENE,3.5,-,N/A,,Overcast,60,2013-04-05 05:53:00
2:35 AM,64.4,62.6,94,29.89,9.0,East,5.8,-,N/A,,Overcast,100,2013-04-05 06:35:00
2:44 AM,64.4,60.8,88,29.89,8.0,East,6.9,-,N/A,,Overcast,80,2013-04-05 06:44:00
2:53 AM,64.9,61.0,87,29.88,6.0,East,5.8,-,N/A,,Overcast,80,2013-04-05 06:53:00
3:05 AM,64.4,60.8,88,29.88,5.0,East,4.6,-,N/A,,Overcast,90,2013-04-05 07:05:00
3:53 AM,63.0,60.1,90,29.86,4.0,NNE,5.8,-,N/A,,Overcast,30,2013-04-05 07:53:00
4:53 AM,62.1,60.1,93,29.83,4.0,NE,5.8,-,N/A,,Overcast,50,2013-04-05 08:53:00
5:46 AM,60.8,57.2,88,29.83,10.0,NE,8.1,-,N/A,,Overcast,50,2013-04-05 09:46:00
5:53 AM,61.0,57.0,87,29.83,10.0,NNE,6.9,-,N/A,,Overcast,30,2013-04-05 09:53:00
6:53 AM,59.0,55.9,90,29.87,8.0,NNE,9.2,18.4,0.01,,Overcast,30,2013-04-05 10:53:00
7:39 AM,57.2,55.4,94,29.89,2.0,NE,6.9,17.3,0.02,Rain,Light Rain,40,2013-04-05 11:39:00
7:49 AM,57.2,53.6,88,29.89,7.0,NNE,9.2,-,0.02,Rain,Light Rain,30,2013-04-05 11:49:00
7:53 AM,57.0,54.0,89,29.88,10.0,NE,8.1,-,0.02,,Overcast,40,2013-04-05 11:53:00
8:46 AM,57.2,55.4,94,29.89,7.0,Calm,Calm,-,0.06,Rain,Light Rain,0,2013-04-05 12:46:00
8:53 AM,57.0,55.0,93,29.90,10.0,Calm,Calm,-,0.06,Rain,Light Rain,0,2013-04-05 12:53:00
9:00 AM,57.2,55.4,94,29.90,3.0,NNE,4.6,-,0.04,Rain,Heavy Rain,30,2013-04-05 13:00:00
9:09 AM,57.2,55.4,94,29.91,2.5,Calm,Calm,-,0.07,Rain,Rain,0,2013-04-05 13:09:00
9:18 AM,57.2,55.4,94,29.91,5.0,Calm,Calm,-,0.07,Rain,Light Rain,0,2013-04-05 13:18:00
9:53 AM,59.0,55.9,90,29.92,10.0,NE,3.5,-,0.09,,Overcast,40,2013-04-05 13:53:00
10:26 AM,59.0,55.4,88,29.91,10.0,NE,10.4,-,N/A,,Overcast,40,2013-04-05 14:26:00
10:53 AM,59.0,55.9,90,29.91,10.0,NNE,11.5,-,N/A,,Overcast,30,2013-04-05 14:53:00
11:53 AM,57.0,54.0,89,29.94,10.0,North,9.2,-,0.03,Rain,Light Rain,10,2013-04-05 15:53:00
12:53 PM,55.9,53.1,90,29.93,7.0,North,6.9,-,0.01,Rain,Light Rain,360,2013-04-05 16:53:00
1:53 PM,54.0,51.1,90,29.93,10.0,NNE,9.2,18.4,0.00,,Overcast,20,2013-04-05 17:53:00
2:53 PM,55.9,52.0,87,29.92,10.0,NNE,5.8,-,N/A,,Overcast,20,2013-04-05 18:53:00
3:53 PM,55.9,51.1,84,29.91,10.0,North,5.8,-,N/A,,Overcast,10,2013-04-05 19:53:00
4:53 PM,55.9,52.0,87,29.91,5.0,NNE,4.6,-,0.00,,Overcast,20,2013-04-05 20:53:00
5:53 PM,57.0,52.0,83,29.92,10.0,NNW,5.8,-,N/A,,Overcast,340,2013-04-05 21:53:00
6:37 PM,57.2,51.8,82,29.93,10.0,NNE,5.8,-,N/A,,Overcast,20,2013-04-05 22:37:00
6:53 PM,57.9,52.0,81,29.94,10.0,North,8.1,-,N/A,,Overcast,350,2013-04-05 22:53:00
6:59 PM,57.2,51.8,82,29.94,10.0,NNW,10.4,-,N/A,,Overcast,340,2013-04-05 22:59:00
7:53 PM,57.0,51.1,81,29.96,10.0,NNE,5.8,-,N/A,,Mostly Cloudy,30,2013-04-05 23:53:00
8:00 PM,57.2,51.8,82,29.96,10.0,North,5.8,-,N/A,,Mostly Cloudy,10,2013-04-06 00:00:00
8:10 PM,55.4,51.8,88,29.96,10.0,North,3.5,-,N/A,,Scattered Clouds,10,2013-04-06 00:10:00
8:53 PM,55.9,51.1,84,29.98,10.0,North,5.8,-,N/A,,Partly Cloudy,360,2013-04-06 00:53:00
9:07 PM,55.4,51.8,88,29.99,10.0,North,4.6,-,N/A,,Mostly Cloudy,360,2013-04-06 01:07:00
9:53 PM,57.0,51.1,81,30.01,10.0,North,5.8,-,N/A,,Overcast,360,2013-04-06 01:53:00
10:53 PM,57.9,48.9,72,30.04,10.0,North,6.9,-,N/A,,Overcast,360,2013-04-06 02:53:00
11:13 PM,57.2,48.2,72,30.04,10.0,North,8.1,-,N/A,,Scattered Clouds,350,2013-04-06 03:13:00
11:53 PM,57.0,48.9,74,30.04,10.0,North,5.8,-,N/A,,Overcast,360,2013-04-06 03:53:00